Погода в Уонгануи

Новая Зеландия     39°56′00″S   175°03′10″E
темп.,
°C
ветер,
м/с
пор.,
м/с
влажн.,
%
обл.,
%
осадки,
мм/ч
давл.,
гПа
погр.,
м
12 апреля, пн
пн1200:00+15с23895 0.0 101381
03:00+14ссв22901 0.0 101271
06:00+14св229213 0.0 101280
09:00+17св2278100 0.0 1012152
12:00+20ююз2366100 0.0 1012487
15:00+19ююз236571 0.0 1010213
18:00+17юз11801 0.0 101016
21:00+15св23830 0.0 101068
13 апреля, вт
вт1300:00+16ссз22911 0.0 101076
03:00+15с25925 0.0 1009136
06:00+15с37937 0.0 1009227
09:00+17с3885100 0.0 1008435
12:00+20зсз596839 0.2 1007886
15:00+19зсз9117098 0.3 1005644
18:00+16сз7118669 2.1 1004803
21:00+15сз711841 0.6 1005806
14 апреля, ср
ср1400:00+14сз610862 0.9 1005731
03:00+13сз610887 0.5 1004610
06:00+12ссз4691100 0.8 1004239
09:00+13ссз368667 0.0 1003315
12:00+15з237710 1.0 1003407
15:00+16юз22715 1.3 1002494
18:00+15сз23770 1.4 1003380
21:00+13сз368712 0.0 1005313
15 апреля, чт
чт1500:00+12ссз498925 0.0 1005370
03:00+15зсз10148187 0.1 10041179
06:00+16зсз10157638 0.2 10041362
09:00+16зсз9157628 0.1 10051537
12:00+17зсз10157364 0.4 10051388
15:00+17зсз101482100 0.5 10041351
18:00+16зсз8138534 1.3 10041050
21:00+16сз8138721 0.1 1005862
16 апреля, пт
пт1600:00+16зсз8138416 0.1 10061039
03:00+16сз8138416 0.1 10061031
06:00+15сз7128720 0.2 1006775
09:00+16сз7128341 0.3 10071038
12:00+18зсз913700 0.4 10061344
15:00+18зсз1015740 0.3 10051451
18:00+16зсз10158216 0.7 10051259
21:00+15зсз9138318 2.1 10071070